Time,TemperatureF,DewpointF,PressureIn,WindDirection,WindDirectionDegrees,WindSpeedMPH,WindSpeedGustMPH,Humidity,HourlyPrecipIn,Conditions,Clouds,dailyrainin,SoftwareType,DateUTC
2013-10-06 00:00:00,60.3,59.4,30.06,North,353,0.0,0.0,97,0.00,,CLR,0.00,VWS V14.01,2013-10-06 04:00:00,
2013-10-06 00:01:00,60.3,59.4,30.06,North,353,0.0,0.0,97,0.00,,CLR,0.00,VWS V14.01,2013-10-06 04:01:00,
2013-10-06 00:02:00,60.3,59.4,30.06,North,353,0.0,0.0,97,0.00,,CLR,0.00,VWS V14.01,2013-10-06 04:02:00,
2013-10-06 00:03:00,60.3,59.4,30.06,North,353,0.0,0.0,97,0.00,,CLR,0.00,VWS V14.01,2013-10-06 04:03:00,
2013-10-06 00:07:00,60.1,59.2,30.06,North,353,0.0,0.0,97,0.00,,CLR,0.00,VWS V14.01,2013-10-06 04:07:00,
2013-10-06 00:12:00,60.1,59.2,30.06,North,353,0.0,0.0,97,0.00,,CLR,0.00,VWS V14.01,2013-10-06 04:12:00,
2013-10-06 00:18:00,59.9,59.3,30.06,North,353,0.0,0.0,98,0.00,,CLR,0.00,VWS V14.01,2013-10-06 04:18:00,
2013-10-06 00:23:00,59.9,59.3,30.06,North,353,0.0,0.0,98,0.00,,CLR,0.00,VWS V14.01,2013-10-06 04:23:00,
2013-10-06 00:28:00,59.7,59.2,30.06,North,353,0.0,0.0,98,0.00,,CLR,0.00,VWS V14.01,2013-10-06 04:28:00,
2013-10-06 00:33:00,59.7,59.2,30.06,North,353,0.0,0.0,98,0.00,,CLR,0.00,VWS V14.01,2013-10-06 04:33:00,
2013-10-06 00:38:00,59.5,59.0,30.06,North,353,0.0,0.0,98,0.00,,CLR,0.00,VWS V14.01,2013-10-06 04:38:00,
2013-10-06 00:43:00,59.4,58.8,30.03,North,353,0.0,0.0,98,0.00,,CLR,0.00,VWS V14.01,2013-10-06 04:43:00,
2013-10-06 00:48:00,59.4,58.8,30.03,North,353,0.0,0.0,98,0.00,,CLR,0.00,VWS V14.01,2013-10-06 04:48:00,
2013-10-06 00:54:00,59.2,58.9,30.03,North,353,0.0,0.0,99,0.00,,CLR,0.00,VWS V14.01,2013-10-06 04:54:00,
2013-10-06 00:59:00,59.2,58.9,30.03,North,353,0.0,0.0,99,0.00,,CLR,0.00,VWS V14.01,2013-10-06 04:59:00,
2013-10-06 01:04:00,59.0,58.7,30.03,North,353,0.0,0.0,99,0.00,,CLR,0.00,VWS V14.01,2013-10-06 05:04:00,
2013-10-06 01:09:00,58.8,58.5,30.03,North,353,0.0,0.0,99,0.00,,CLR,0.00,VWS V14.01,2013-10-06 05:09:00,
2013-10-06 01:14:00,58.8,58.8,30.03,North,353,0.0,0.0,100,0.00,,CLR,0.00,VWS V14.01,2013-10-06 05:14:00,
2013-10-06 01:20:00,58.6,58.6,30.03,North,353,0.0,0.0,100,0.00,,CLR,0.00,VWS V14.01,2013-10-06 05:20:00,
2013-10-06 01:25:00,58.6,58.6,30.03,North,353,0.0,0.0,100,0.00,,CLR,0.00,VWS V14.01,2013-10-06 05:25:00,
2013-10-06 01:30:00,58.5,58.5,30.03,North,353,0.0,0.0,100,0.00,,CLR,0.00,VWS V14.01,2013-10-06 05:30:00,
2013-10-06 01:35:00,58.5,58.5,30.03,North,353,0.0,0.0,100,0.00,,CLR,0.00,VWS V14.01,2013-10-06 05:35:00,
2013-10-06 01:40:00,58.5,58.5,30.03,North,353,0.0,0.0,100,0.00,,CLR,0.00,VWS V14.01,2013-10-06 05:40:00,
2013-10-06 01:45:00,58.5,58.5,30.03,North,353,0.0,0.0,100,0.00,,CLR,0.00,VWS V14.01,2013-10-06 05:45:00,
2013-10-06 01:50:00,58.3,58.3,30.03,North,353,0.0,0.0,100,0.00,,CLR,0.00,VWS V14.01,2013-10-06 05:50:00,
2013-10-06 01:55:00,58.1,58.1,30.03,North,353,0.0,0.0,100,0.00,,CLR,0.00,VWS V14.01,2013-10-06 05:55:00,
2013-10-06 02:01:00,58.1,58.1,30.03,North,353,0.0,0.0,100,0.00,,CLR,0.00,VWS V14.01,2013-10-06 06:01:00,
2013-10-06 02:06:00,58.1,58.1,30.03,North,353,0.0,0.0,100,0.00,,CLR,0.00,VWS V14.01,2013-10-06 06:06:00,
2013-10-06 02:11:00,57.9,57.9,30.03,North,353,0.0,0.0,100,0.00,,CLR,0.00,VWS V14.01,2013-10-06 06:11:00,
2013-10-06 02:16:00,57.9,57.9,30.03,North,353,0.0,0.0,100,0.00,,CLR,0.00,VWS V14.01,2013-10-06 06:16:00,
2013-10-06 02:21:00,57.9,57.9,30.03,North,353,0.0,0.0,100,0.00,,CLR,0.00,VWS V14.01,2013-10-06 06:21:00,
2013-10-06 02:26:00,57.7,57.7,30.03,North,353,0.0,0.0,100,0.00,,CLR,0.00,VWS V14.01,2013-10-06 06:26:00,
2013-10-06 02:31:00,57.6,57.6,30.03,North,353,0.0,0.0,100,0.00,,,0.00,VWS V14.01,2013-10-06 06:31:00,
2013-10-06 02:37:00,57.6,57.6,30.03,North,353,0.0,0.0,100,0.00,,,0.00,VWS V14.01,2013-10-06 06:37:00,
2013-10-06 02:42:00,57.6,57.6,30.03,North,353,0.0,0.0,100,0.00,,,0.00,VWS V14.01,2013-10-06 06:42:00,
2013-10-06 02:47:00,57.4,57.4,30.03,North,353,0.0,0.0,100,0.00,,,0.00,VWS V14.01,2013-10-06 06:47:00,
2013-10-06 02:52:00,57.4,57.4,30.03,North,353,0.0,0.0,100,0.00,,,0.00,VWS V14.01,2013-10-06 06:52:00,
2013-10-06 02:57:00,57.2,57.2,30.01,North,353,0.0,0.0,100,0.00,,,0.00,VWS V14.01,2013-10-06 06:57:00,
2013-10-06 03:02:00,57.2,57.2,30.01,North,353,0.0,0.0,100,0.00,,,0.00,VWS V14.01,2013-10-06 07:02:00,
2013-10-06 03:07:00,57.4,57.4,30.01,North,353,0.0,0.0,100,0.00,,,0.00,VWS V14.01,2013-10-06 07:07:00,
2013-10-06 03:12:00,57.4,57.4,30.01,North,353,0.0,0.0,100,0.00,,,0.00,VWS V14.01,2013-10-06 07:12:00,
2013-10-06 03:17:00,57.4,57.4,30.01,North,353,0.0,0.0,100,0.00,,,0.00,VWS V14.01,2013-10-06 07:17:00,
2013-10-06 03:23:00,57.6,57.6,30.01,North,353,0.0,0.0,100,0.00,,,0.00,VWS V14.01,2013-10-06 07:23:00,
2013-10-06 03:28:00,57.6,57.6,30.01,North,353,0.0,0.0,100,0.00,,,0.00,VWS V14.01,2013-10-06 07:28:00,
2013-10-06 03:33:00,57.6,57.6,30.01,North,353,0.0,0.0,100,0.00,,,0.00,VWS V14.01,2013-10-06 07:33:00,
2013-10-06 03:38:00,57.6,57.6,30.01,North,353,0.0,0.0,100,0.00,,,0.00,VWS V14.01,2013-10-06 07:38:00,
2013-10-06 03:43:00,57.6,57.6,30.01,North,353,0.0,0.0,100,0.00,,,0.00,VWS V14.01,2013-10-06 07:43:00,
2013-10-06 03:48:00,57.7,57.7,30.01,North,353,0.0,0.0,100,0.00,,,0.00,VWS V14.01,2013-10-06 07:48:00,
2013-10-06 03:53:00,57.6,57.6,30.01,North,353,0.0,0.0,100,0.00,,,0.00,VWS V14.01,2013-10-06 07:53:00,
2013-10-06 03:59:00,57.7,57.7,30.01,North,353,0.0,0.0,100,0.00,,,0.00,VWS V14.01,2013-10-06 07:59:00,
2013-10-06 04:04:00,57.9,57.9,30.01,North,353,0.0,0.0,100,0.00,,,0.00,VWS V14.01,2013-10-06 08:04:00,
2013-10-06 04:09:00,57.9,57.9,30.01,North,353,0.0,0.0,100,0.00,,,0.00,VWS V14.01,2013-10-06 08:09:00,
2013-10-06 04:14:00,57.9,57.9,30.01,North,353,0.0,0.0,100,0.00,,,0.00,VWS V14.01,2013-10-06 08:14:00,
2013-10-06 04:19:00,57.9,57.9,30.01,North,353,0.0,0.0,100,0.00,,,0.00,VWS V14.01,2013-10-06 08:19:00,
2013-10-06 04:24:00,58.1,58.1,30.01,North,353,0.0,0.0,100,0.00,,,0.00,VWS V14.01,2013-10-06 08:24:00,
2013-10-06 04:30:00,58.1,58.1,30.01,North,353,0.0,0.0,100,0.00,,,0.00,VWS V14.01,2013-10-06 08:30:00,
2013-10-06 04:35:00,58.3,58.3,30.01,North,353,0.0,0.0,100,0.00,,,0.00,VWS V14.01,2013-10-06 08:35:00,
2013-10-06 04:40:00,58.3,58.3,30.01,North,353,0.0,0.0,100,0.00,,,0.00,VWS V14.01,2013-10-06 08:40:00,
2013-10-06 04:45:00,58.3,58.3,30.01,North,353,0.0,0.0,100,0.00,,,0.00,VWS V14.01,2013-10-06 08:45:00,
2013-10-06 04:50:00,58.3,58.3,30.01,North,353,0.0,0.0,100,0.00,,,0.00,VWS V14.01,2013-10-06 08:50:00,
2013-10-06 04:55:00,58.3,58.3,30.01,North,353,0.0,0.0,100,0.00,,,0.00,VWS V14.01,2013-10-06 08:55:00,
2013-10-06 05:00:00,58.3,58.3,30.01,North,353,0.0,0.0,100,0.00,,,0.00,VWS V14.01,2013-10-06 09:00:00,
2013-10-06 05:05:00,58.3,58.3,30.01,North,353,0.0,0.0,100,0.00,,,0.00,VWS V14.01,2013-10-06 09:05:00,
2013-10-06 05:09:00,58.3,58.3,30.01,North,353,0.0,0.0,100,0.00,,,0.00,VWS V14.01,2013-10-06 09:09:00,
2013-10-06 05:14:00,58.1,58.1,30.01,North,353,0.0,0.0,100,0.00,,,0.00,VWS V14.01,2013-10-06 09:14:00,
2013-10-06 05:19:00,58.1,58.1,30.01,North,353,0.0,0.0,100,0.00,,,0.00,VWS V14.01,2013-10-06 09:19:00,
2013-10-06 05:24:00,58.1,58.1,30.01,North,353,0.0,0.0,100,0.00,,,0.00,VWS V14.01,2013-10-06 09:24:00,
2013-10-06 05:29:00,58.1,58.1,30.01,North,353,0.0,0.0,100,0.00,,,0.00,VWS V14.01,2013-10-06 09:29:00,
2013-10-06 05:34:00,58.1,58.1,30.01,North,353,0.0,0.0,100,0.00,,,0.00,VWS V14.01,2013-10-06 09:34:00,
2013-10-06 05:39:00,58.1,58.1,30.01,North,353,0.0,0.0,100,0.00,,,0.00,VWS V14.01,2013-10-06 09:39:00,
2013-10-06 05:44:00,58.1,58.1,30.01,North,353,0.0,0.0,100,0.00,,,0.00,VWS V14.01,2013-10-06 09:44:00,
2013-10-06 05:49:00,58.3,58.3,30.01,North,353,0.0,0.0,100,0.00,,,0.00,VWS V14.01,2013-10-06 09:49:00,
2013-10-06 05:55:00,58.3,58.3,30.01,North,353,0.0,0.0,100,0.00,,,0.00,VWS V14.01,2013-10-06 09:55:00,
2013-10-06 06:00:00,58.3,58.3,30.01,North,353,0.0,0.0,100,0.00,,,0.00,VWS V14.01,2013-10-06 10:00:00,
2013-10-06 06:05:00,58.3,58.3,30.01,North,353,0.0,0.0,100,0.00,,,0.00,VWS V14.01,2013-10-06 10:05:00,
2013-10-06 06:10:00,58.1,58.1,30.01,North,353,0.0,0.0,100,0.00,,,0.00,VWS V14.01,2013-10-06 10:10:00,
2013-10-06 06:15:00,58.1,58.1,30.01,North,353,0.0,0.0,100,0.00,,,0.00,VWS V14.01,2013-10-06 10:15:00,
2013-10-06 06:20:00,57.9,57.9,30.01,North,353,0.0,0.0,100,0.00,,,0.00,VWS V14.01,2013-10-06 10:20:00,
2013-10-06 06:25:00,57.9,57.9,30.01,North,353,0.0,0.0,100,0.00,,,0.00,VWS V14.01,2013-10-06 10:25:00,
2013-10-06 06:30:00,57.9,57.9,30.01,North,353,0.0,0.0,100,0.00,,,0.00,VWS V14.01,2013-10-06 10:30:00,
2013-10-06 06:35:00,57.9,57.9,30.01,North,353,0.0,0.0,100,0.00,,,0.00,VWS V14.01,2013-10-06 10:35:00,
2013-10-06 06:40:00,57.9,57.9,30.01,North,353,0.0,0.0,100,0.00,,,0.00,VWS V14.01,2013-10-06 10:40:00,
2013-10-06 06:45:00,57.9,57.9,30.01,North,353,0.0,0.0,100,0.00,,,0.00,VWS V14.01,2013-10-06 10:45:00,
2013-10-06 06:51:00,57.9,57.9,30.01,North,353,0.0,0.0,100,0.00,,,0.00,VWS V14.01,2013-10-06 10:51:00,
2013-10-06 06:56:00,57.9,57.9,30.01,North,353,0.0,0.0,100,0.00,,,0.00,VWS V14.01,2013-10-06 10:56:00,
2013-10-06 07:01:00,58.1,58.1,30.01,North,353,0.0,0.0,100,0.00,,,0.00,VWS V14.01,2013-10-06 11:01:00,
2013-10-06 07:06:00,58.1,58.1,30.01,North,353,0.0,0.0,100,0.00,,,0.00,VWS V14.01,2013-10-06 11:06:00,
2013-10-06 07:11:00,58.1,58.1,30.01,North,353,0.0,0.0,100,0.00,,,0.00,VWS V14.01,2013-10-06 11:11:00,
2013-10-06 07:16:00,58.1,58.1,30.01,North,353,0.0,0.0,100,0.00,,,0.00,VWS V14.01,2013-10-06 11:16:00,
2013-10-06 07:21:00,58.3,58.3,30.01,North,353,0.0,0.0,100,0.00,,,0.00,VWS V14.01,2013-10-06 11:21:00,
2013-10-06 07:26:00,58.3,58.3,30.01,North,353,0.0,0.0,100,0.00,,,0.00,VWS V14.01,2013-10-06 11:26:00,
2013-10-06 07:31:00,58.3,58.3,30.01,North,353,0.0,0.0,100,0.00,,,0.00,VWS V14.01,2013-10-06 11:31:00,
2013-10-06 07:36:00,58.5,58.5,30.01,North,353,0.0,0.0,100,0.00,,,0.00,VWS V14.01,2013-10-06 11:36:00,
2013-10-06 07:42:00,58.5,58.5,30.01,North,353,0.0,0.0,100,0.00,,,0.00,VWS V14.01,2013-10-06 11:42:00,
2013-10-06 07:47:00,58.6,58.6,30.01,North,353,0.0,0.0,100,0.00,,,0.00,VWS V14.01,2013-10-06 11:47:00,
2013-10-06 07:52:00,58.6,58.6,30.01,North,353,0.0,0.0,100,0.00,,,0.00,VWS V14.01,2013-10-06 11:52:00,
2013-10-06 07:57:00,58.8,58.8,30.01,North,353,0.0,0.0,100,0.00,,,0.00,VWS V14.01,2013-10-06 11:57:00,
2013-10-06 08:02:00,58.8,58.8,30.01,North,353,0.0,0.0,100,0.00,,,0.00,VWS V14.01,2013-10-06 12:02:00,
2013-10-06 08:07:00,59.0,59.0,30.01,North,353,0.0,0.0,100,0.00,,,0.00,VWS V14.01,2013-10-06 12:07:00,
2013-10-06 08:12:00,59.2,59.2,30.01,North,353,0.0,0.0,100,0.00,,,0.00,VWS V14.01,2013-10-06 12:12:00,
2013-10-06 08:17:00,59.2,59.2,30.01,North,353,0.0,0.0,100,0.00,,,0.00,VWS V14.01,2013-10-06 12:17:00,
2013-10-06 08:22:00,59.0,59.0,30.01,North,353,0.0,0.0,100,0.00,,,0.00,VWS V14.01,2013-10-06 12:22:00,
2013-10-06 08:27:00,59.2,59.2,30.01,North,353,0.0,0.0,100,0.00,,,0.00,VWS V14.01,2013-10-06 12:27:00,
2013-10-06 08:32:00,59.4,59.4,30.01,North,353,0.0,0.0,100,0.00,,,0.00,VWS V14.01,2013-10-06 12:32:00,
2013-10-06 08:38:00,59.5,59.5,30.01,North,353,0.0,0.0,100,0.00,,,0.00,VWS V14.01,2013-10-06 12:38:00,
2013-10-06 08:43:00,59.7,59.7,30.01,North,353,0.0,0.0,100,0.00,,,0.00,VWS V14.01,2013-10-06 12:43:00,
2013-10-06 08:48:00,59.9,59.9,30.01,North,353,0.0,0.0,100,0.00,,,0.00,VWS V14.01,2013-10-06 12:48:00,
2013-10-06 08:53:00,60.1,60.1,30.01,North,353,0.0,0.0,100,0.00,,,0.00,VWS V14.01,2013-10-06 12:53:00,
2013-10-06 08:58:00,60.3,60.3,30.01,North,353,0.0,0.0,100,0.00,,,0.00,VWS V14.01,2013-10-06 12:58:00,
2013-10-06 09:03:00,60.1,60.1,30.01,North,353,0.0,0.0,100,0.00,,,0.00,VWS V14.01,2013-10-06 13:03:00,
2013-10-06 09:08:00,59.9,59.9,30.01,North,353,0.0,0.0,100,0.00,,,0.00,VWS V14.01,2013-10-06 13:08:00,
2013-10-06 09:13:00,60.1,60.1,30.01,North,353,0.0,0.0,100,0.00,,,0.00,VWS V14.01,2013-10-06 13:13:00,
2013-10-06 09:18:00,60.3,60.3,30.01,North,353,0.0,0.0,100,0.00,,,0.00,VWS V14.01,2013-10-06 13:18:00,
2013-10-06 09:23:00,60.6,60.6,30.01,North,353,0.0,0.0,100,0.00,,,0.00,VWS V14.01,2013-10-06 13:23:00,
2013-10-06 09:29:00,60.6,60.6,30.01,North,353,0.0,0.0,100,0.00,,,0.00,VWS V14.01,2013-10-06 13:29:00,
2013-10-06 09:34:00,60.8,60.0,30.01,North,353,0.0,0.0,97,0.00,,,0.00,VWS V14.01,2013-10-06 13:34:00,
2013-10-06 09:39:00,61.5,60.7,30.01,North,353,0.0,0.0,97,0.00,,,0.00,VWS V14.01,2013-10-06 13:39:00,
2013-10-06 09:44:00,62.2,61.1,30.01,North,353,0.0,0.0,96,0.00,,,0.00,VWS V14.01,2013-10-06 13:44:00,
2013-10-06 09:49:00,62.1,52.9,30.01,North,353,0.0,0.0,72,0.00,,,0.00,VWS V14.01,2013-10-06 13:49:00,
2013-10-06 09:54:00,62.4,53.7,30.01,North,353,0.0,0.0,73,0.00,,,0.00,VWS V14.01,2013-10-06 13:54:00,
2013-10-06 09:59:00,63.1,55.5,30.01,North,353,0.0,0.0,76,0.00,,,0.00,VWS V14.01,2013-10-06 13:59:00,
2013-10-06 10:04:00,63.5,53.5,30.01,North,353,0.0,0.0,70,0.00,,,0.00,VWS V14.01,2013-10-06 14:04:00,
2013-10-06 10:09:00,63.9,51.5,30.01,North,353,0.0,0.0,64,0.00,,,0.00,VWS V14.01,2013-10-06 14:09:00,
2013-10-06 10:14:00,64.2,51.4,30.01,North,353,0.0,0.0,63,0.00,,,0.00,VWS V14.01,2013-10-06 14:14:00,
2013-10-06 10:19:00,64.4,49.8,30.01,North,353,0.0,0.0,59,0.00,,,0.00,VWS V14.01,2013-10-06 14:19:00,
2013-10-06 10:25:00,64.9,51.2,30.01,North,353,0.0,0.0,61,0.00,,,0.00,VWS V14.01,2013-10-06 14:25:00,
2013-10-06 10:30:00,65.5,50.8,30.01,North,353,0.0,0.0,59,0.00,,,0.00,VWS V14.01,2013-10-06 14:30:00,
2013-10-06 10:35:00,66.2,54.1,30.01,North,353,0.0,0.0,65,0.00,,,0.00,VWS V14.01,2013-10-06 14:35:00,
2013-10-06 10:40:00,67.1,52.3,30.01,North,353,0.0,0.0,59,0.00,,,0.00,VWS V14.01,2013-10-06 14:40:00,
2013-10-06 10:45:00,68.2,53.3,30.01,North,353,0.0,0.0,59,0.00,,SCT002,0.00,VWS V14.01,2013-10-06 14:45:00,
2013-10-06 10:50:00,69.1,50.7,30.01,WNW,284,0.0,0.0,52,0.00,,SCT002,0.00,VWS V14.01,2013-10-06 14:50:00,
2013-10-06 10:55:00,70.0,51.6,30.01,WNW,303,0.0,0.0,52,0.00,,SCT002,0.00,VWS V14.01,2013-10-06 14:55:00,
2013-10-06 11:00:00,71.1,49.8,30.01,SW,221,0.0,0.0,47,0.00,,CLR,0.00,VWS V14.01,2013-10-06 15:00:00,
2013-10-06 11:05:00,72.5,50.6,30.01,SW,219,0.0,0.0,46,0.00,,CLR,0.00,VWS V14.01,2013-10-06 15:05:00,
2013-10-06 11:10:00,75.0,50.4,30.01,SW,231,4.0,4.0,42,0.00,,CLR,0.00,VWS V14.01,2013-10-06 15:10:00,
2013-10-06 11:15:00,79.0,51.9,30.01,WSW,254,0.0,0.0,39,0.00,,CLR,0.00,VWS V14.01,2013-10-06 15:15:00,
2013-10-06 11:21:00,80.8,52.8,30.01,WSW,242,3.1,4.0,38,0.00,,CLR,0.00,VWS V14.01,2013-10-06 15:21:00,
2013-10-06 11:26:00,79.2,52.1,30.01,SSW,203,0.0,2.2,39,0.00,,CLR,0.00,VWS V14.01,2013-10-06 15:26:00,
2013-10-06 11:31:00,75.9,49.2,30.01,SW,216,0.0,2.2,39,0.00,,CLR,0.00,VWS V14.01,2013-10-06 15:31:00,
2013-10-06 11:36:00,74.3,48.4,30.01,SW,216,0.0,0.0,40,0.00,,CLR,0.00,VWS V14.01,2013-10-06 15:36:00,
2013-10-06 11:41:00,75.0,49.1,29.98,SW,218,2.7,2.7,40,0.00,,CLR,0.00,VWS V14.01,2013-10-06 15:41:00,
2013-10-06 11:46:00,73.9,48.1,29.98,SW,218,0.0,2.2,40,0.00,,CLR,0.00,VWS V14.01,2013-10-06 15:46:00,
2013-10-06 11:51:00,74.8,48.9,29.98,South,186,0.0,0.0,40,0.00,,CLR,0.00,VWS V14.01,2013-10-06 15:51:00,
2013-10-06 11:56:00,77.5,50.7,30.01,SSW,210,0.0,0.0,39,0.00,,CLR,0.00,VWS V14.01,2013-10-06 15:56:00,
2013-10-06 12:02:00,80.1,52.9,30.01,SW,219,0.0,2.2,39,0.00,,CLR,0.00,VWS V14.01,2013-10-06 16:02:00,
2013-10-06 12:07:00,79.7,52.6,30.01,SW,227,0.0,4.9,39,0.00,,CLR,0.00,VWS V14.01,2013-10-06 16:07:00,
2013-10-06 12:12:00,78.6,51.6,29.98,SW,227,0.0,2.2,39,0.00,,CLR,0.00,VWS V14.01,2013-10-06 16:12:00,
2013-10-06 12:17:00,79.9,52.7,29.98,SW,216,0.0,0.0,39,0.00,,CLR,0.00,VWS V14.01,2013-10-06 16:17:00,
2013-10-06 12:22:00,76.8,50.0,29.98,SW,219,0.0,0.0,39,0.00,,CLR,0.00,VWS V14.01,2013-10-06 16:22:00,
2013-10-06 12:27:00,79.3,52.3,29.98,SW,226,0.0,3.1,39,0.00,,CLR,0.00,VWS V14.01,2013-10-06 16:27:00,
2013-10-06 12:32:00,80.4,53.2,29.98,SW,219,2.2,3.6,39,0.00,,CLR,0.00,VWS V14.01,2013-10-06 16:32:00,
2013-10-06 12:37:00,78.6,51.6,29.98,WSW,252,0.0,2.7,39,0.00,,CLR,0.00,VWS V14.01,2013-10-06 16:37:00,
2013-10-06 12:42:00,77.7,50.8,29.98,SW,226,0.0,3.1,39,0.00,,CLR,0.00,VWS V14.01,2013-10-06 16:42:00,
2013-10-06 12:48:00,78.3,51.3,29.98,West,279,3.1,4.0,39,0.00,,CLR,0.00,VWS V14.01,2013-10-06 16:48:00,
2013-10-06 12:53:00,83.7,55.4,29.98,NNW,344,0.0,0.0,38,0.00,,CLR,0.00,VWS V14.01,2013-10-06 16:53:00,
2013-10-06 12:58:00,84.6,55.5,29.95,West,273,0.0,4.5,37,0.00,,CLR,0.00,VWS V14.01,2013-10-06 16:58:00,
2013-10-06 13:03:00,86.4,57.0,29.95,SSW,200,0.0,4.9,37,0.00,,CLR,0.00,VWS V14.01,2013-10-06 17:03:00,
2013-10-06 13:08:00,88.0,58.5,29.95,West,261,0.0,6.3,37,0.00,,CLR,0.00,VWS V14.01,2013-10-06 17:08:00,
2013-10-06 13:13:00,88.0,58.5,29.98,NNE,21,0.0,2.2,37,0.00,,CLR,0.00,VWS V14.01,2013-10-06 17:13:00,
2013-10-06 13:18:00,90.0,59.5,29.98,SE,133,2.7,5.4,36,0.00,,CLR,0.00,VWS V14.01,2013-10-06 17:18:00,
2013-10-06 13:23:00,89.8,59.3,29.98,SSW,208,4.9,4.9,36,0.00,,CLR,0.00,VWS V14.01,2013-10-06 17:23:00,
2013-10-06 13:28:00,88.5,59.0,29.98,East,81,3.1,3.1,37,0.00,,CLR,0.00,VWS V14.01,2013-10-06 17:28:00,
2013-10-06 13:33:00,87.8,58.3,29.98,South,187,4.0,4.0,37,0.00,,CLR,0.00,VWS V14.01,2013-10-06 17:33:00,
2013-10-06 13:38:00,87.8,58.3,29.98,SE,140,3.6,4.0,37,0.00,,CLR,0.00,VWS V14.01,2013-10-06 17:38:00,
2013-10-06 13:44:00,89.1,59.4,29.98,SE,145,4.9,4.9,37,0.00,,CLR,0.00,VWS V14.01,2013-10-06 17:44:00,
2013-10-06 13:49:00,87.4,58.0,29.98,SSE,151,2.2,4.0,37,0.00,,CLR,0.00,VWS V14.01,2013-10-06 17:49:00,
2013-10-06 13:54:00,85.5,56.2,29.98,SE,144,6.3,6.3,37,0.00,,CLR,0.00,VWS V14.01,2013-10-06 17:54:00,
2013-10-06 13:59:00,83.5,55.2,29.98,ENE,74,0.0,3.1,38,0.00,,CLR,0.00,VWS V14.01,2013-10-06 17:59:00,
2013-10-06 14:04:00,81.5,53.5,29.98,SSW,208,0.0,4.0,38,0.00,,BKN060,0.00,VWS V14.01,2013-10-06 18:04:00,
2013-10-06 14:09:00,80.6,52.7,29.98,West,263,7.2,7.2,38,0.00,,BKN060,0.00,VWS V14.01,2013-10-06 18:09:00,
2013-10-06 14:14:00,79.0,51.9,29.95,WSW,253,0.0,4.5,39,0.00,,BKN060,0.00,VWS V14.01,2013-10-06 18:14:00,
2013-10-06 14:19:00,79.5,52.4,29.95,North,4,2.7,3.6,39,0.00,,BKN060,0.00,VWS V14.01,2013-10-06 18:19:00,
2013-10-06 14:25:00,78.6,51.6,29.95,WNW,298,0.0,3.1,39,0.00,,BKN060,0.00,VWS V14.01,2013-10-06 18:25:00,
2013-10-06 14:30:00,78.6,51.6,29.95,North,353,2.2,3.6,39,0.00,,BKN060,0.00,VWS V14.01,2013-10-06 18:30:00,
2013-10-06 14:35:00,78.1,51.1,29.95,NE,39,0.0,3.6,39,0.00,,BKN060,0.00,VWS V14.01,2013-10-06 18:35:00,
2013-10-06 14:40:00,78.1,51.1,29.95,North,1,2.2,3.1,39,0.00,,BKN060,0.00,VWS V14.01,2013-10-06 18:40:00,
2013-10-06 14:45:00,78.4,51.5,29.95,SSW,208,0.0,3.6,39,0.00,,BKN060,0.00,VWS V14.01,2013-10-06 18:45:00,
2013-10-06 14:50:00,78.4,51.5,29.95,SSE,148,2.2,4.9,39,0.00,,BKN060,0.00,VWS V14.01,2013-10-06 18:50:00,
2013-10-06 14:56:00,78.3,51.3,29.95,SSW,196,0.0,5.4,39,0.00,,BKN060,0.00,VWS V14.01,2013-10-06 18:56:00,
2013-10-06 15:01:00,77.2,50.3,29.95,NE,39,0.0,3.1,39,0.00,,BKN055,0.00,VWS V14.01,2013-10-06 19:01:00,
2013-10-06 15:06:00,77.9,51.0,29.95,NNW,338,0.0,3.1,39,0.00,,BKN055,0.00,VWS V14.01,2013-10-06 19:06:00,
2013-10-06 15:11:00,78.4,51.5,29.95,North,9,3.6,3.6,39,0.00,,BKN055,0.00,VWS V14.01,2013-10-06 19:11:00,
2013-10-06 15:16:00,78.6,51.6,29.95,SSW,198,0.0,4.0,39,0.00,,BKN055,0.00,VWS V14.01,2013-10-06 19:16:00,
2013-10-06 15:21:00,77.2,50.3,29.95,NE,54,0.0,0.0,39,0.00,,BKN055,0.00,VWS V14.01,2013-10-06 19:21:00,
2013-10-06 15:26:00,76.5,49.7,29.95,SW,223,0.0,2.7,39,0.00,,BKN055,0.00,VWS V14.01,2013-10-06 19:26:00,
2013-10-06 15:31:00,75.7,49.0,29.95,SW,230,0.0,5.8,39,0.00,,BKN055,0.00,VWS V14.01,2013-10-06 19:31:00,
2013-10-06 15:36:00,75.6,48.9,29.95,WSW,237,0.0,2.2,39,0.00,,BKN055,0.00,VWS V14.01,2013-10-06 19:36:00,
2013-10-06 15:42:00,75.4,48.7,29.95,West,266,0.0,5.4,39,0.00,,BKN055,0.00,VWS V14.01,2013-10-06 19:42:00,
2013-10-06 15:47:00,76.1,49.4,29.95,North,1,0.0,2.2,39,0.00,,BKN055,0.00,VWS V14.01,2013-10-06 19:47:00,
2013-10-06 15:52:00,77.0,50.2,29.95,WSW,241,4.0,4.0,39,0.00,,BKN055,0.00,VWS V14.01,2013-10-06 19:52:00,
2013-10-06 15:57:00,76.8,50.0,29.92,WSW,249,0.0,2.2,39,0.00,,BKN055,0.00,VWS V14.01,2013-10-06 19:57:00,
2013-10-06 16:02:00,75.6,48.9,29.92,SW,217,3.6,3.6,39,0.00,,BKN055,0.00,VWS V14.01,2013-10-06 20:02:00,
2013-10-06 16:07:00,75.4,48.7,29.92,SW,233,0.0,0.0,39,0.00,,BKN055,0.00,VWS V14.01,2013-10-06 20:07:00,
2013-10-06 16:12:00,75.4,48.7,29.92,WSW,249,4.0,4.0,39,0.00,,BKN055,0.00,VWS V14.01,2013-10-06 20:12:00,
2013-10-06 16:17:00,75.7,49.0,29.92,SW,225,3.1,3.1,39,0.00,,BKN055,0.00,VWS V14.01,2013-10-06 20:17:00,
2013-10-06 16:22:00,76.5,49.7,29.92,SW,226,0.0,0.0,39,0.00,,BKN055,0.00,VWS V14.01,2013-10-06 20:22:00,
2013-10-06 16:28:00,76.1,49.4,29.92,SW,219,0.0,2.2,39,0.00,,BKN055,0.00,VWS V14.01,2013-10-06 20:28:00,
2013-10-06 16:33:00,75.6,48.9,29.92,SW,226,0.0,2.2,39,0.00,,BKN055,0.00,VWS V14.01,2013-10-06 20:33:00,
2013-10-06 16:38:00,75.7,49.0,29.92,WSW,240,3.6,4.9,39,0.00,,BKN055,0.00,VWS V14.01,2013-10-06 20:38:00,
2013-10-06 16:43:00,76.1,49.4,29.92,SW,231,0.0,2.7,39,0.00,,BKN055,0.00,VWS V14.01,2013-10-06 20:43:00,
2013-10-06 16:48:00,75.6,48.9,29.92,North,357,0.0,3.6,39,0.00,,BKN055,0.00,VWS V14.01,2013-10-06 20:48:00,
2013-10-06 16:53:00,75.2,48.6,29.92,SW,225,0.0,0.0,39,0.00,,BKN055,0.00,VWS V14.01,2013-10-06 20:53:00,
2013-10-06 16:58:00,74.7,48.8,29.92,SE,135,0.0,0.0,40,0.00,,BKN055,0.00,VWS V14.01,2013-10-06 20:58:00,
2013-10-06 17:04:00,75.2,48.6,29.92,SSW,194,0.0,2.7,39,0.00,,SCT060,0.00,VWS V14.01,2013-10-06 21:04:00,
2013-10-06 17:09:00,75.7,49.0,29.92,South,169,2.7,2.7,39,0.00,,SCT060,0.00,VWS V14.01,2013-10-06 21:09:00,
2013-10-06 17:14:00,75.6,48.9,29.92,East,84,2.7,3.1,39,0.00,,SCT060,0.00,VWS V14.01,2013-10-06 21:14:00,
2013-10-06 17:19:00,75.0,49.1,29.92,SW,226,0.0,0.0,40,0.00,,SCT060,0.00,VWS V14.01,2013-10-06 21:19:00,
2013-10-06 17:24:00,74.5,48.6,29.92,West,272,0.0,4.0,40,0.00,,SCT060,0.00,VWS V14.01,2013-10-06 21:24:00,
2013-10-06 17:30:00,74.5,48.6,29.92,SW,232,3.6,3.6,40,0.00,,SCT060,0.00,VWS V14.01,2013-10-06 21:30:00,
2013-10-06 17:35:00,74.5,48.6,29.92,West,269,0.0,0.0,40,0.00,,SCT060,0.00,VWS V14.01,2013-10-06 21:35:00,
2013-10-06 17:40:00,74.3,48.4,29.92,SSW,196,0.0,0.0,40,0.00,,SCT060,0.00,VWS V14.01,2013-10-06 21:40:00,
2013-10-06 17:45:00,73.8,48.0,29.92,SSW,205,0.0,0.0,40,0.00,,SCT060,0.00,VWS V14.01,2013-10-06 21:45:00,
2013-10-06 17:50:00,73.2,47.5,29.92,SSW,207,0.0,0.0,40,0.00,,SCT060,0.00,VWS V14.01,2013-10-06 21:50:00,
2013-10-06 17:55:00,72.5,46.8,29.92,East,89,0.0,0.0,40,0.00,,SCT060,0.00,VWS V14.01,2013-10-06 21:55:00,
2013-10-06 18:00:00,72.3,46.7,29.92,SSW,213,0.0,0.0,40,0.00,,SCT060,0.00,VWS V14.01,2013-10-06 22:00:00,
2013-10-06 18:06:00,72.1,46.5,29.92,WSW,242,0.0,2.7,40,0.00,,SCT060,0.00,VWS V14.01,2013-10-06 22:06:00,
2013-10-06 18:11:00,71.8,46.2,29.92,SSE,151,0.0,0.0,40,0.00,,SCT060,0.00,VWS V14.01,2013-10-06 22:11:00,
2013-10-06 18:16:00,71.4,46.5,29.92,SSW,208,0.0,0.0,41,0.00,,SCT060,0.00,VWS V14.01,2013-10-06 22:16:00,
2013-10-06 18:21:00,71.1,47.5,29.92,SSW,208,0.0,0.0,43,0.00,,SCT060,0.00,VWS V14.01,2013-10-06 22:21:00,
2013-10-06 18:26:00,70.3,46.8,29.92,SSW,208,0.0,0.0,43,0.00,,SCT060,0.00,VWS V14.01,2013-10-06 22:26:00,
2013-10-06 18:31:00,70.0,48.3,29.92,SE,124,0.0,0.0,46,0.00,,SCT060,0.00,VWS V14.01,2013-10-06 22:31:00,
2013-10-06 18:36:00,69.6,48.0,29.92,SE,133,0.0,0.0,46,0.00,,SCT060,0.00,VWS V14.01,2013-10-06 22:36:00,
2013-10-06 18:42:00,69.3,48.2,29.92,SE,133,0.0,0.0,47,0.00,,SCT060,0.00,VWS V14.01,2013-10-06 22:42:00,
2013-10-06 18:47:00,68.9,47.9,29.92,North,357,0.0,0.0,47,0.00,,SCT060,0.00,VWS V14.01,2013-10-06 22:47:00,
2013-10-06 18:52:00,68.7,47.7,29.92,North,357,0.0,0.0,47,0.00,,SCT060,0.00,VWS V14.01,2013-10-06 22:52:00,
2013-10-06 18:57:00,68.4,47.4,29.92,North,357,0.0,0.0,47,0.00,,SCT060,0.00,VWS V14.01,2013-10-06 22:57:00,
2013-10-06 19:02:00,68.2,47.2,29.92,North,357,0.0,0.0,47,0.00,,CLR,0.00,VWS V14.01,2013-10-06 23:02:00,
2013-10-06 19:07:00,67.8,46.9,29.92,SW,215,0.0,0.0,47,0.00,,CLR,0.00,VWS V14.01,2013-10-06 23:07:00,
2013-10-06 19:12:00,67.6,47.3,29.89,SSW,212,0.0,0.0,48,0.00,,CLR,0.00,VWS V14.01,2013-10-06 23:12:00,
2013-10-06 19:18:00,67.5,47.1,29.89,SSW,212,0.0,0.0,48,0.00,,CLR,0.00,VWS V14.01,2013-10-06 23:18:00,
2013-10-06 19:23:00,67.3,47.5,29.89,SSE,159,0.0,0.0,49,0.00,,CLR,0.00,VWS V14.01,2013-10-06 23:23:00,
2013-10-06 19:28:00,66.9,48.2,29.92,SSE,160,0.0,0.0,51,0.00,,CLR,0.00,VWS V14.01,2013-10-06 23:28:00,
2013-10-06 19:33:00,66.9,48.2,29.92,SSE,160,0.0,0.0,51,0.00,,CLR,0.00,VWS V14.01,2013-10-06 23:33:00,
2013-10-06 19:38:00,66.9,48.7,29.92,SSE,160,0.0,0.0,52,0.00,,CLR,0.00,VWS V14.01,2013-10-06 23:38:00,
2013-10-06 19:43:00,66.7,49.6,29.92,SSE,160,0.0,0.0,54,0.00,,CLR,0.00,VWS V14.01,2013-10-06 23:43:00,
2013-10-06 19:48:00,66.6,50.4,29.92,SSE,159,0.0,0.0,56,0.00,,CLR,0.00,VWS V14.01,2013-10-06 23:48:00,
2013-10-06 19:54:00,66.6,50.9,29.92,SSE,160,0.0,0.0,57,0.00,,CLR,0.00,VWS V14.01,2013-10-06 23:54:00,
2013-10-06 19:59:00,66.4,50.7,29.92,SSE,160,0.0,0.0,57,0.00,,CLR,0.00,VWS V14.01,2013-10-06 23:59:00,
2013-10-06 20:04:00,66.2,51.0,29.92,SSE,160,0.0,0.0,58,0.00,,CLR,0.00,VWS V14.01,2013-10-07 00:04:00,
2013-10-06 20:09:00,66.2,51.0,29.92,SE,133,0.0,0.0,58,0.00,,CLR,0.00,VWS V14.01,2013-10-07 00:09:00,
2013-10-06 20:14:00,66.2,51.0,29.92,SE,133,0.0,0.0,58,0.00,,CLR,0.00,VWS V14.01,2013-10-07 00:14:00,
2013-10-06 20:20:00,66.2,51.0,29.92,SE,133,0.0,0.0,58,0.00,,CLR,0.00,VWS V14.01,2013-10-07 00:20:00,
2013-10-06 20:25:00,66.0,51.8,29.92,SE,143,0.0,0.0,60,0.00,,CLR,0.00,VWS V14.01,2013-10-07 00:25:00,
2013-10-06 20:30:00,65.7,51.9,29.92,SSE,162,0.0,0.0,61,0.00,,CLR,0.00,VWS V14.01,2013-10-07 00:30:00,
2013-10-06 20:35:00,65.5,52.1,29.92,SSE,162,0.0,0.0,62,0.00,,CLR,0.00,VWS V14.01,2013-10-07 00:35:00,
2013-10-06 20:40:00,65.5,52.6,29.92,SSE,162,0.0,0.0,63,0.00,,CLR,0.00,VWS V14.01,2013-10-07 00:40:00,
2013-10-06 20:45:00,65.5,53.4,29.92,SSE,162,0.0,0.0,65,0.00,,CLR,0.00,VWS V14.01,2013-10-07 00:45:00,
2013-10-06 20:50:00,65.5,53.8,29.92,SSE,162,0.0,0.0,66,0.00,,CLR,0.00,VWS V14.01,2013-10-07 00:50:00,
2013-10-06 20:55:00,65.3,53.2,29.92,SSE,162,0.0,0.0,65,0.00,,CLR,0.00,VWS V14.01,2013-10-07 00:55:00,
2013-10-06 21:00:00,65.1,53.9,29.92,SSE,162,0.0,0.0,67,0.00,,FEW036,0.00,VWS V14.01,2013-10-07 01:00:00,
2013-10-06 21:05:00,65.1,53.9,29.92,SSE,162,0.0,0.0,67,0.00,,FEW036,0.00,VWS V14.01,2013-10-07 01:05:00,
2013-10-06 21:11:00,65.1,54.3,29.92,SSE,162,0.0,0.0,68,0.00,,FEW036,0.00,VWS V14.01,2013-10-07 01:11:00,
2013-10-06 21:16:00,64.9,54.1,29.92,SSE,162,0.0,0.0,68,0.00,,FEW036,0.00,VWS V14.01,2013-10-07 01:16:00,
2013-10-06 21:21:00,64.8,54.8,29.92,SSE,162,0.0,0.0,70,0.00,,FEW036,0.00,VWS V14.01,2013-10-07 01:21:00,
2013-10-06 21:26:00,64.6,54.6,29.92,SSE,162,0.0,0.0,70,0.00,,FEW036,0.00,VWS V14.01,2013-10-07 01:26:00,
2013-10-06 21:31:00,64.4,54.8,29.92,SSE,162,0.0,0.0,71,0.00,,FEW036,0.00,VWS V14.01,2013-10-07 01:31:00,
2013-10-06 21:36:00,64.4,55.2,29.92,SSE,162,0.0,0.0,72,0.00,,FEW036,0.00,VWS V14.01,2013-10-07 01:36:00,
2013-10-06 21:42:00,64.8,55.9,29.92,SSE,162,0.0,0.0,73,0.00,,FEW036,0.00,VWS V14.01,2013-10-07 01:42:00,
2013-10-06 21:47:00,65.3,53.2,29.92,SSE,162,0.0,0.0,65,0.00,,FEW036,0.00,VWS V14.01,2013-10-07 01:47:00,
2013-10-06 21:52:00,65.7,52.3,29.92,SSE,162,0.0,0.0,62,0.00,,FEW036,0.00,VWS V14.01,2013-10-07 01:52:00,
2013-10-06 21:57:00,65.7,51.9,29.92,SSE,162,0.0,0.0,61,0.00,,FEW036,0.00,VWS V14.01,2013-10-07 01:57:00,
2013-10-06 22:02:00,65.5,51.7,29.92,SSE,162,0.0,0.0,61,0.00,,CLR,0.00,VWS V14.01,2013-10-07 02:02:00,
2013-10-06 22:07:00,65.5,52.6,29.92,SSE,162,0.0,0.0,63,0.00,,CLR,0.00,VWS V14.01,2013-10-07 02:07:00,
2013-10-06 22:13:00,65.5,53.0,29.92,SSE,162,0.0,0.0,64,0.00,,CLR,0.00,VWS V14.01,2013-10-07 02:13:00,
2013-10-06 22:18:00,65.3,53.2,29.92,SSE,162,0.0,0.0,65,0.00,,CLR,0.00,VWS V14.01,2013-10-07 02:18:00,
2013-10-06 22:23:00,65.1,53.5,29.92,SSE,162,0.0,0.0,66,0.00,,CLR,0.00,VWS V14.01,2013-10-07 02:23:00,
2013-10-06 22:28:00,65.1,53.9,29.92,SSE,162,0.0,0.0,67,0.00,,CLR,0.00,VWS V14.01,2013-10-07 02:28:00,
2013-10-06 22:33:00,64.9,53.7,29.92,SSE,162,0.0,0.0,67,0.00,,CLR,0.00,VWS V14.01,2013-10-07 02:33:00,
2013-10-06 22:38:00,64.9,54.1,29.92,SSE,162,0.0,0.0,68,0.00,,CLR,0.00,VWS V14.01,2013-10-07 02:38:00,
2013-10-06 22:43:00,64.9,54.5,29.92,SSE,162,0.0,0.0,69,0.00,,CLR,0.00,VWS V14.01,2013-10-07 02:43:00,
2013-10-06 22:48:00,64.9,54.5,29.92,SSE,162,0.0,0.0,69,0.00,,CLR,0.00,VWS V14.01,2013-10-07 02:48:00,
2013-10-06 22:53:00,64.9,54.9,29.92,SSE,162,0.0,0.0,70,0.00,,CLR,0.00,VWS V14.01,2013-10-07 02:53:00,
2013-10-06 22:58:00,65.1,55.5,29.89,SSE,162,0.0,0.0,71,0.00,,CLR,0.00,VWS V14.01,2013-10-07 02:58:00,
2013-10-06 23:03:00,65.1,55.1,29.89,SSE,162,0.0,0.0,70,0.00,,BKN100,0.00,VWS V14.01,2013-10-07 03:03:00,
2013-10-06 23:09:00,65.3,54.9,29.89,SSE,162,0.0,0.0,69,0.00,,BKN100,0.00,VWS V14.01,2013-10-07 03:09:00,
2013-10-06 23:14:00,65.3,54.9,29.89,SSE,162,0.0,0.0,69,0.00,,BKN100,0.00,VWS V14.01,2013-10-07 03:14:00,
2013-10-06 23:19:00,65.3,54.5,29.89,SSE,162,0.0,0.0,68,0.00,,BKN100,0.00,VWS V14.01,2013-10-07 03:19:00,
2013-10-06 23:24:00,65.3,54.5,29.89,SSE,162,0.0,0.0,68,0.00,,BKN100,0.00,VWS V14.01,2013-10-07 03:24:00,
2013-10-06 23:30:00,65.5,54.7,29.89,SSE,162,0.0,0.0,68,0.00,,BKN100,0.00,VWS V14.01,2013-10-07 03:30:00,
2013-10-06 23:35:00,65.5,54.7,29.89,SSE,162,0.0,0.0,68,0.00,,BKN100,0.00,VWS V14.01,2013-10-07 03:35:00,
2013-10-06 23:40:00,65.5,55.0,29.89,SSE,162,0.0,0.0,69,0.00,,BKN100,0.00,VWS V14.01,2013-10-07 03:40:00,
2013-10-06 23:45:00,65.5,55.5,29.89,SSE,162,0.0,0.0,70,0.00,,BKN100,0.00,VWS V14.01,2013-10-07 03:45:00,
2013-10-06 23:50:00,65.3,56.0,29.89,SSE,162,0.0,0.0,72,0.00,,BKN100,0.00,VWS V14.01,2013-10-07 03:50:00,
2013-10-06 23:55:00,65.3,58.6,29.89,SSE,162,0.0,0.0,79,0.00,,BKN100,0.00,VWS V14.01,2013-10-07 03:55:00,